www.pogodaiklimat.ru

АРХИВ ПОГОДЫ в Сидар-Рапидсе

Время (UTC), дата Ветер
(напр.,м/с)
 
Видим.   Явления Облачность Т
(С)
Тd
(С)
f
(%)
Тe
(С)
Тes
(С)
Комфортность

P
(гПа)

Po
(гПа)
Тmin
(С)
Tmax
(С)
R
(мм)
SD
(см)
14:52 23.05 СЗ  16 км    2/0 3300 м
[средняя] 
+17.2  +10.0  63  +16  +18    1018.4  987.1         
15:52 23.05 З  7
{11} 
16 км    ясно  +18.3  +8.9  54  +18  +20    1018.4  987.1         
16:52 23.05 З  16 км    ясно  +19.4  +10.6  57  +20  +26    1018.5  987.1  +11.1  +19.4     
17:52 23.05 СЗ  5
{9} 
16 км    ясно  +20.0  +10.6  55  +21  +28  комфорт  1018.4  987.1         
18:52 23.05 З  16 км    ясно  +21.1  +10.6  51  +23  +32  комфорт  1018.4  987.1         
19:52 23.05 СЗ  5
{8} 
16 км    ясно  +21.1  +10.0  49  +23  +29  комфорт  1018.4  987.1         
20:52 23.05 З  4
{8} 
16 км    ясно  +21.7  +10.6  49  +23  +30  комфорт  1017.9  986.5         
21:52 23.05 З  16 км    ясно  +21.7  +10.6  49  +23  +29  комфорт  1018.4  987.1         
22:52 23.05 З  16 км    2/0 2700 м
[средняя] 
+20.0  +11.1  57  +21  +23  комфорт  1018.7  987.5  +19.4  +22.2     
23:52 23.05 СЗ  16 км    ясно  +19.4  +11.1  59  +21  +22  комфорт  1018.3  986.8         
00:52 24.05 СВ  16 км    ясно  +18.3  +10.6  61  +19  +19    1017.6  986.5         
01:52 24.05 СВ  16 км    ясно  +17.8  +10.6  63  +18  +18    1017.3  986.1         
02:52 24.05 СВ  16 км    ясно  +16.1  +11.1  72  +16  +16    1018.1  986.8         
03:52 24.05 В  16 км    2/0 3300 м
[средняя] 
+16.1  +11.1  72  +15  +15    1017.7  986.5         
04:52 24.05 В  16 км    5/0 2400 м
[средняя] 
+15.6  +11.1  75  +14  +14    1017.1  985.8  +15.6  +20.6     
05:09 24.05 В  16 км  гроза  8/0 2100 м
[средняя] 
+15.6  +11.1  75  +14  +14      985.5         
05:42 24.05 В  16 км    10/10 1650 м  +15.6  +11.1  75  +14  +14               
05:52 24.05 СВ  16 км    10/10 1500 м  +16.1  +11.1  72  +15  +15    1017.5  986.5         
06:39 24.05 СВ  5 км  гроза с сильным дождем, дымка  10/10 570 м  +13.9  +12.2  89  +11  +11               
06:52 24.05 СВ  16 км  гроза, слабый дождь  10/8 1410 м
[средняя] 
+13.9  +12.2  89  +11  +11    1017.6           
07:10 24.05 С  3 км  гроза с сильным дождем, дымка  10/8 1440 м
[средняя] 
+13.3  +12.8  97  +11  +11               
07:26 24.05 СВ  5 км  гроза с дождем, дымка  10/8 1440 м
[средняя] 
+13.3  +12.8  97  +11  +11               
07:45 24.05 СВ  6 км  гроза, дождь, дымка  10/5 1650 м
[средняя] 
+12.8  +12.8  100  +10  +10               
07:52 24.05 С  8 км  слабый дождь, дымка  10/8 1650 м
[средняя] 
+12.8  +12.8  100  +10  +10    1019.4        8.1   
08:00 24.05 С  8 км  гроза, дождь, дымка  10/8 240 м
[средняя] 
+12.8  +12.8  100  +10  +10               
08:10 24.05 СВ  6 км  гроза с дождем, дымка  10/8 240 м
[средняя] 
+12.8  +12.8  100  +10  +10               
08:41 24.05 В  8 км  дождь, дымка  10/8 1410 м
[средняя] 
+12.8  +12.8  100  +11  +11      988.1         
08:52 24.05 В  8 км  дождь, дымка  10/5 1350 м
[средняя] 
+12.8  +12.8  100  +10  +10    1018.8  987.5         
09:01 24.05 СВ  10 км  гроза, слабый дождь, дымка  10/2 360 м
[средняя] 
+12.8  +12.8  100  +10  +10      987.8         
09:16 24.05 В  8
{11} 
10 км  слабый дождь, дымка  10/2 360 м
[средняя] 
+12.8  +12.8  100  +9  +9      985.5         
09:52 24.05 В  8
{12} 
11 км  слабый дождь  10/2 360 м
[средняя] 
+12.8  +12.8  100  +10  +10    1015.6  984.5         
10:52 24.05 В  16 км    10/8 960 м
[средняя] 
+13.3  +13.3  100  +11  +11    1016.0  984.8  +12.2  +16.1  12.2   
11:52 24.05 В  8
{11} 
16 км    10/10 900 м  +13.3  +13.3  100  +10  +10    1015.3  984.2         
12:10 24.05 В  8
{13} 
16 км    10/10 870 м  +13.9  +13.3  96  +11  +11      984.2         
12:14 24.05 ЮВ  7
{13} 
16 км  гроза с дождем  10/10 870 м  +13.9  +13.3  96  +11  +11      984.2         
12:42 24.05 ЮВ  5 км  гроза с сильным дождем  10/10 570 м  +13.9  +13.3  96  +12  +12               
12:52 24.05 З  14
{19} 
800 м  гроза с сильным дождем  10/10 420 м  +13.3  +13.3  100  +9  +9    1019.0           
12:59 24.05 СЗ  1
{13} 
2 км  гроза с сильным дождем  10/10 480 м  +13.3  +13.3  100  +13  +13               
13:02 24.05 В  3 км  гроза с сильным дождем  10/10 480 м  +13.3  +13.3  100  +12  +12               
13:06 24.05 В  6 км  гроза со слабым дождем  10/8 720 м
[средняя] 
+13.3  +13.3  100  +11  +11               
13:08 24.05 В  6 км  гроза, слабый дождь  10/8 660 м
[средняя] 
+13.3  +13.3  100  +11  +11               
13:23 24.05 ЮВ  8 км  гроза, дождь  10/2 1500 м
[средняя] 
+13.3  +13.3  100  +10  +10      985.2         
13:52 24.05 ЮВ  8 км  гроза, дождь  10/0 2700 м
[средняя] 
+13.3  +13.3  100  +10  +11    1015.0  983.8      10.4   
13:53 24.05 ЮВ  16 км  слабый дождь  10/0 2400 м
[средняя] 
+13.3  +13.3  100  +10  +11      983.8         
14:52 24.05 ЮВ  8
{13} 
16 км  слабый дождь  10/2 1140 м
[средняя] 
+15.0  +15.0  100  +13  +13    1014.5  983.2         
15:52 24.05 ЮВ  16 км    ясно  +16.7  +15.6  93  +15  +16    1014.0  982.9         
16:52 24.05 ЮВ  8
{11} 
16 км    ясно  +20.0  +17.8  87  +22  +25  комфорт  1013.3  982.2  +13.3  +20.0  10.7   
17:52 24.05 Ю  8
{11} 
16 км    ясно  +22.2  +18.9  82  +28  +30  душно  1012.5  981.6         

 

Местоположение метеостанции The Eastern Iowa Airport: широта 41.8844 долгота -91.7106 высота над уровнем моря 263 м.

В архиве по умолчанию представлена погода в Сидар-Рапидсе за последние 1-2 суток. Обновление информации о фактической погоде в базе происходит ежечасно! Архивные данные за месяц целиком и за предыдущие месяцы Вы можете получить, выбрав интересующий диапазон дат из раскрывающегося списка и нажав кнопку "Ввод!".

Внимание! Архив погоды МЕТАР в базе сайта в настоящее время начинается c 1 января 2011 г. Нет смысла пытаться выбрать более раннюю дату.

Внимание! Время в таблицах - всемирное. Для получения местного времени необходимо прибавить поправку, которая в Сидар-Рапидсе равна -6 ч.

Ветер - указаны скорость ветра в м/с и направление, откуда дует ветер: С - северный, СВ - северо-восточный, В - восточный, ЮВ - юго-восточный, Ю - южный, ЮЗ - юго-западный, З - западный, СЗ - северо-западный.
Видимость - горизонтальная дальность видимости в метрах или километрах. При видимости от 1 до 10 км при отсутствии осадков обычно наблюдается дымка, при ухудшении видимости до 1 км и менее - туман. В сухую погоду видимость может ухудшаться дымом, пылью или мглою.
Атмосферные явления - указаны явления, наблюдавшиеся в указанный момент времени.
Облачность - указаны через наклонную черту верхняя и нижняя облачность в баллах и высота нижней границы облаков в метрах. Внимание: облачность, как и прочие метеорологические величины в США измеряются автоматическими метеостанциями. Указанные значения в баллах носят условный характер и показывают процент времени, в течение которого, в среднем, лазерный луч высотомера отражался от облаков обратно.
T - Температура воздуха - температура, измеренная на высоте 2 м над землей.
Td - Температура точки росы - температура, при понижении до которой содержащийся в воздухе водяной пар достигнет насыщения.
f - Относительная влажность воздуха - влажноcть воздуха, измеренная на высоте 2 м над землей.
Te - Эффективная температура - температура, которую ощущает одетый по сезону человек в тени. Характеристика душности погоды. При расчете учитывается влияние влажности воздуха и скорости ветра на теплоощущения человека.
Tes - Эффективная температура на солнце - температура, которую ощущает человек, с поправкой на солнечный нагрев. Характеристика знойности погоды. Зависит от высоты солнца над горизонтом, облачности и скорости ветра. Ночью, в пасмурную погоду, а также при ветре 12 м/с и более поправка равна нулю.
P - Атмосферное давление - приведенное к уровню моря атмосферное давление.
Po - Атмосферное давление - измеренное на уровне метеостанции атмосферное давление.
Tmin - Минимальная температура - минимум температуры воздуха на высоте 2 м над землей.
Tmax - Максимальная температура - максимум температуры воздуха на высоте 2 м над землей.
R - Количество осадков - Количество выпавших осадков за 3 или 6 часов, мм.
SD - Снежный покров - Высота снежного покрова, см.